User: anonymous   Login
Location: Hartman Creek State Park
(44.3257°N, 89.2134°W)
Time: 16:29:01
(UTC-05:00)
Language:

BREEZE-M DEB (TANK) - Orbit

View from above orbital plane
View from above orbital plane
View from above satellite
View from above satellite

Ground track
Ground track

The orbit data is extracted from the following two-line orbital elements,

1 29649U 06056B   17115.72955763 +.00002221 +00000-0 +61649-3 0  9992
2 29649 049.4866 272.0421 5368559 128.6337 293.0292 04.99457369185151
Epoch (UTC): 25 April 2017 17:30:33
Eccentricity: 0.5368559
inclination: 49.4866°
perigee height: 317 km
apogee height: 15839 km
right ascension of ascending node: 272.0421°
argument of perigee: 128.6337°
revolutions per day: 4.99457369
mean anomaly at epoch: 293.0292°
orbit number at epoch: 18515

The dashed part of the orbit path shows where the satellite is in the earth's shadow,  

DLR